Weather History for KBIH - May, 2013

Change the Weather History Date:

Thursday, May 2, 2013

  Actual Average Record
Temperature  
Mean Temperature 56 °F 59 °F  
Max Temperature 80 °F 78 °F 96 °F (1947)
Min Temperature 31 °F 41 °F 28 °F (1951)
Degree Days  
Heating Degree Days 9 6  
Month to date heating degree days 11 13  
Since 1 July heating degree days 3792 4055  
Cooling Degree Days 0 0  
Month to date cooling degree days 0 0  
Year to date cooling degree days 20 4  
Growing Degree Days 5 (Base 50)    
Moisture  
Dew Point -6 °F    
Average Humidity 15    
Maximum Humidity 27    
Minimum Humidity 2    
Precipitation  
Precipitation 0.00 in 0.00 in 0.05 in (1982)
Month to date precipitation 0.00 0.01  
Year to date precipitation T 2.70  
Snow  
Snow 0.00 in 0.00 in - ()
Month to date snowfall 0.0 0.0  
Since 1 July snowfall 2.8 6.8  
Snow Depth 0.00 in    
Sea Level Pressure  
Sea Level Pressure 30.24 in    
Wind  
Wind Speed 5 mph (SW)    
Max Wind Speed 16 mph    
Max Gust Speed 21 mph    
Visibility 10 miles    
Events      
T = Trace of Precipitation, MM = Missing Value Source: NWS Daily Summary

Daily Weather History Graph

Daily Weather History Graph

Search for Another Location

Airport or City:

Trip Planner

Search our weather history database for the weather conditions in past years. The results will help you decide how hot, cold, wet, or windy it might be!

Date:

Astronomy

May. 02, 2013 Rise Set
Actual Time 5:56 AM PDT 7:44 PM PDT
Civil Twilight 5:28 AM PDT 8:12 PM PDT
Nautical Twilight 4:54 AM PDT 8:46 PM PDT
Astronomical Twilight 4:18 AM PDT 9:23 PM PDT
Moon 1:38 AM PDT 12:47 PM PDT
Length of Visible Light 14h 43m
Length of Day
13h 47m
Waning Gibbous, 46% of the Moon is Illuminated
May 2
Waning Gibbous
May 9
New
May 17
First Quarter
May 24
Full
May 31
Last Quarter

Hourly Weather History & Observations

Time (PDT) Temp. Windchill Dew Point Humidity Pressure Visibility Wind Dir Wind Speed Gust Speed Precip Events Conditions
12:56 AM 52.0 °F - -2.0 °F 11% 30.28 in 10.0 mi NW 3.5 mph - N/A   Clear
1:56 AM 48.9 °F - -0.9 °F 13% 30.30 in 10.0 mi West 6.9 mph - N/A   Clear
2:56 AM 48.9 °F - -0.9 °F 13% 30.30 in 10.0 mi WSW 6.9 mph - N/A   Clear
3:56 AM 44.1 °F 42.5 °F 1.0 °F 17% 30.32 in 10.0 mi West 3.5 mph - N/A   Clear
4:56 AM 41.0 °F - 1.0 °F 19% 30.34 in 10.0 mi Calm Calm - N/A   Clear
5:56 AM 39.0 °F - 3.9 °F 23% 30.35 in 10.0 mi Calm Calm - N/A   Clear
6:56 AM 39.9 °F 37.8 °F 8.1 °F 27% 30.38 in 10.0 mi NW 3.5 mph - N/A   Clear
7:56 AM 50.0 °F - 8.1 °F 18% 30.38 in 10.0 mi Calm Calm - N/A   Clear
8:56 AM 57.9 °F - -2.0 °F 9% 30.37 in 10.0 mi West 4.6 mph - N/A   Clear
9:56 AM 62.1 °F - -2.9 °F 7% 30.35 in 10.0 mi North 3.5 mph - N/A   Clear
10:56 AM 64.9 °F - -2.0 °F 7% 30.32 in 10.0 mi Calm Calm - N/A   Clear
11:56 AM 66.9 °F - -4.0 °F 6% 30.29 in 10.0 mi Calm Calm - N/A   Clear
12:56 PM 70.0 °F - -6.0 °F 5% 30.25 in 10.0 mi Calm Calm - N/A   Clear
1:56 PM 75.0 °F - -2.0 °F 5% 30.22 in 10.0 mi SW 5.8 mph - N/A   Clear
2:56 PM 75.9 °F - -4.0 °F 4% 30.18 in 10.0 mi Calm Calm - N/A   Clear
3:56 PM 79.0 °F - -7.1 °F 4% 30.16 in 10.0 mi Calm Calm - N/A   Clear
4:56 PM 80.1 °F - -20.9 °F 4% 30.14 in 10.0 mi South 11.5 mph 17.3 mph N/A   Clear
5:56 PM 79.0 °F - -20.9 °F 4% 30.14 in 10.0 mi South 12.7 mph 17.3 mph N/A   Clear
6:56 PM 75.9 °F - -20.0 °F 4% 30.13 in 10.0 mi SSE 13.8 mph - N/A   Clear
7:56 PM 71.1 °F - -14.1 °F 4% 30.12 in 10.0 mi South 13.8 mph - N/A   Clear
8:56 PM 66.9 °F - -14.1 °F 4% 30.13 in 10.0 mi South 10.4 mph - N/A   Clear
9:56 PM 63.0 °F - -11.9 °F 5% 30.14 in 10.0 mi SSE 11.5 mph - N/A   Clear
10:56 PM 57.9 °F - -9.0 °F 6% 30.14 in 10.0 mi South 10.4 mph - N/A   Clear
11:56 PM 51.1 °F - -6.0 °F 9% 30.16 in 10.0 mi Calm Calm - N/A   Clear